IRIDIUM 33 DEB, 46965

Orbit data source: Space-Track

IRIDIUM 33 DEB, 46965 is space debris in LEO originally from a launch on Sun, 14 Sep 1997 UTC launched from the Tyuratam Missile And Space Complex (TTMTR). The debris from Iridium 33, an American commercial communications satellite, has been tracked extensively since its accidental collision with the defunct Russian satellite Cosmos 2251 in 2009. This event, occurring at high speed in low Earth orbit (LEO), generated thousands of pieces of space debris, significantly increasing the risk of further collisions. The Iridium 33 debris cloud has impacted space traffic management and orbital debris mitigation strategies, making it a subject of ongoing study in space situational awareness.

Loading next visibility...
Identifier
46965, 1997-051ABX
Orbit
LEO
Country
Flag of USUS
Related business
Manufacturer
Unknown
Mission
Spacecraft
Bus & Motor
Unknown
Mass
Unknown
Launch date (UTC)
1997-09-14 (28 years ago)
Launch vehicle
Unknown
Launch site
Tyuratam Missile And Space Complex (TTMTR)
Object type
Payload
Rocket body
Debris
Shape & HBR
Unknown shape, 0.1 m
Radar Cross Section
Small (<0.1 m²)

Expand to show TLE details & history
Last TLE update: 2 days ago

TLE from 2 days ago
0 IRIDIUM 33 DEB
1 46965U 97051ABX 25305.41083689  .00004002  00000-0  82954-3 0  9993
2 46965  86.3393 359.0159 0021358 106.4988 267.0290 14.59870990616653
Epoch: 2025-11-01T09:51Z
TLE epoch observation values (Epoch: 2025-11-01T09:51:36.307Z)
Latitude
13.21802°
Longitude
171.02971°
Altitude
696.741 km
Speed
7.508 km/s
True Right ascension
23h 59m 29s
True Declination
13° 08' 28"
Sunlit
Object was in full shadow at epoch
Visualization orbit readout
Latitude
Unknown
Longitude
Unknown
Altitude
Unknown
Speed
Unknown
Apparent Right ascension
Unknown
Apparent Declination
Unknown
Sunlit
N/A
Visualization observer readout
Local Sidereal Time
14:21:12
Azimuth
Unknown
Elevation
Unknown
Doppler factor
Unknown
Orbital elements
Apogee altitude
705.617 km
Perigee altitude
675.423 km
Semi-major axis
7,068.657 km
Eccentricity
0.00214
Inclination
86.3393°
RAAN
359.0159°
Arg. of periapsis
106.4988°
True anomaly
266.78462°
Mean anomaly
267.029°
Eccentric anomaly
266.90681°
Mean motion
3.65206 °/min
Orbital period
98.57 mins
BSTAR
0.00082954
Loading maneuver chart data...
Computing Atmospheric mass density...

Documentation

Showing up to 5 results
|